[[{"header":{"parameterUnit":"m.s-1","parameterCategory":1,"la1":30.2991,"la2":30.254,"lo1":-89.0895,"lo2":-89.0444,"dy":0.0017,"dx":0.0017,"nx":28,"ny":28,"refTime":"2025-09-12T03:00:00:Z","depth":0,"parameterNumber":2,"parameterNumberName":"U-component_of_WINDS"},"data":[0,0,0,0,0,0,0,0,0,0,0,0,0,0,0,0,0,0,0,0,0,0,0,0,0,0,0,0,0,0,0,0,0,0,0,0,0,0,0,0,0,0,0,0,0,0,0,0,0,0,0,0,0,0,0,0,0,0,-3.4477,-3.4481,0,-3.4859,-3.4863,-3.4868,-3.5039,-3.5038,-3.5038,-3.5038,-3.5402,-3.5412,-3.5422,0,0,0,0,0,0,0,0,0,0,0,0,0,-3.3876,-3.3886,-3.4476,-3.4481,-3.4486,-3.4858,-3.4864,-3.4869,-3.5039,-3.5038,-3.5038,-3.5038,-3.5399,-3.5411,-3.5423,0,0,0,0,0,0,0,0,0,0,0,0,0,-3.4184,-3.3889,-3.4476,-3.4617,-3.4633,-3.4857,-3.4864,-3.487,-3.5039,-3.5038,-3.5038,-3.5037,-3.5395,-3.541,-3.5425,-3.5529,0,0,-3.5471,-3.5477,0,0,0,0,0,0,0,0,-3.4167,-3.4206,-3.4591,-3.4607,-3.4626,-3.4902,-3.4786,-3.509,-3.5039,-3.4884,-3.5038,-3.5037,-3.5234,-3.5263,-3.5335,-3.5546,-3.5562,-3.5472,-3.5481,-3.5488,-3.5492,0,0,0,0,0,0,0,-3.4145,-3.419,-3.4627,-3.4596,-3.4618,-3.4655,-3.4698,-3.4844,-3.5056,-3.4897,-3.4911,-3.4955,-3.5244,-3.532,-3.5344,-3.5567,-3.5472,-3.5485,-3.5494,-3.55,-3.5891,-3.5892,0,0,0,0,0,0,-3.4104,-3.4172,-3.4615,-3.4639,-3.4391,-3.4666,-3.4715,-3.4813,-3.5056,-3.5093,-3.4955,-3.4962,-3.5294,-3.5327,-3.5358,-3.5501,-3.5488,-3.5502,-3.551,-3.5889,-3.5891,-3.5892,0,0,0,0,0,0,-3.409,-3.4142,-3.4599,-3.4409,-3.4471,-3.4677,-3.4786,-3.4821,-3.4898,-3.51,-3.5136,-3.4995,-3.5295,-3.5337,-3.5489,-3.5516,-3.5509,-3.5522,-3.5888,-3.589,-3.5892,-3.5784,0,0,0,0,0,0,-3.4072,-3.4136,-3.4181,-3.4409,-3.448,-3.4729,-3.4788,-3.4829,-3.4926,-3.4938,-3.5147,-3.5181,-3.5298,-3.5466,-3.5504,-3.5536,-3.5534,-3.5886,-3.5889,-3.5891,-3.5785,-3.5782,-3.5778,0,0,0,0,0,-3.405,-3.4128,-3.4182,-3.4235,-3.4542,-3.473,-3.477,-3.4911,-3.4928,-3.4973,-3.5105,-3.5174,-3.5508,-3.548,-3.5524,-3.5561,-3.5885,-3.5888,-3.5891,-3.5787,-3.5782,-3.5778,0,0,0,0,0,0,-3.3884,-3.416,-3.4223,-3.4379,-3.4532,-3.4759,-3.4819,-3.49,-3.5043,-3.5047,-3.5208,-3.5254,-3.5392,-3.5492,-3.5456,-3.5679,-3.5702,-3.5714,-3.5608,-3.5605,-3.5602,-3.5573,-3.5547,0,0,0,0,0,-3.3869,-3.4006,-3.4235,-3.435,-3.4425,-3.4609,-3.4696,-3.4793,-3.4953,-3.5016,-3.5158,-3.5304,-3.5444,-3.553,-3.5668,-3.5803,-3.585,-3.5851,-3.5847,-3.5843,-3.585,-3.5932,-3.5936,-3.5902,-3.5902,-3.5902,0,0,-3.3831,-3.3999,-3.4073,-3.4321,-3.4451,-3.4584,-3.4661,-3.4796,-3.4896,-3.5033,-3.519,-3.53,-3.5474,-3.5619,-3.569,-3.5706,-3.5871,-3.5847,-3.5842,-3.5851,-3.5936,-3.5939,-3.5941,-3.5904,-3.5904,-3.5903,0,0,-3.3833,-3.3974,-3.4089,-3.4221,-3.4422,-3.4546,-3.4573,-3.4793,-3.4875,-3.5037,-3.5145,-3.5262,-3.5496,-3.5618,-3.571,-3.5772,-3.5841,-3.5811,-3.579,-3.5869,-3.5871,-3.5874,-3.5897,-3.5903,-3.5819,-3.5818,-3.5818,0,-3.3759,-3.3972,-3.4134,-3.427,-3.4375,-3.452,-3.4635,-3.4752,-3.4982,-3.505,-3.5068,-3.5373,-3.5499,-3.5678,-3.5695,-3.5764,-3.5798,-3.5786,-3.586,-3.5864,-3.5869,-3.5893,-3.5901,-3.5813,-3.5814,-3.5815,-3.5815,0,-3.3873,-3.4019,-3.4086,-3.432,-3.4434,-3.4556,-3.4733,-3.4828,-3.4918,-3.5039,-3.5203,-3.5363,-3.5539,-3.559,-3.5672,-3.5781,-3.5786,-3.583,-3.5856,-3.5865,-3.589,-3.59,-3.5807,-3.5808,-3.581,-3.5811,0,0,-3.377,-3.4104,-3.4125,-3.4236,-3.4473,-3.4586,-3.4716,-3.4901,-3.4979,-3.5135,-3.5247,-3.5448,-3.5495,-3.5599,-3.5698,-3.5768,-3.581,-3.5804,-3.5811,-3.58,-3.5941,-3.5906,-3.5914,-3.586,-3.5862,-3.5864,-3.5927,0,-3.3805,-3.4055,-3.421,-3.4395,-3.4533,-3.4677,-3.4792,-3.4946,-3.5065,-3.5195,-3.5322,-3.5464,-3.5513,-3.5579,-3.5655,-3.5788,-3.5839,-3.5786,-3.596,-3.5964,-3.5911,-3.5927,-3.5888,-3.5939,-3.5937,-3.5939,-3.594,0,-3.3875,-3.4043,-3.4244,-3.4476,-3.4539,-3.464,-3.4825,-3.4949,-3.5128,-3.521,-3.5334,-3.5438,-3.5578,-3.5597,-3.5791,-3.5752,-3.5833,-3.591,-3.5916,-3.5934,-3.595,-3.5944,-3.5958,-3.5965,-3.5957,-3.5956,-3.5954,0,-3.3782,-3.4056,-3.4216,-3.4306,-3.4578,-3.4646,-3.4761,-3.4942,-3.5045,-3.5205,-3.5273,-3.5442,-3.5533,-3.566,-3.5806,-3.5806,-3.5986,-3.6016,-3.6054,-3.605,-3.608,-3.6076,-3.6106,-3.6136,-3.6135,-3.6135,-3.6135,0,-3.3802,-3.3919,-3.4179,-3.4275,-3.4413,-3.459,-3.4718,-3.4844,-3.5005,-3.5126,-3.5258,-3.5366,-3.5554,-3.5685,-3.5798,-3.5943,-3.5982,-3.6049,-3.6077,-3.6037,-3.6028,-3.6089,-3.6088,-3.6138,-3.6137,-3.6137,-3.6136,0,-3.3717,-3.3897,-3.408,-3.4329,-3.4395,-3.4484,-3.4695,-3.4792,-3.4924,-3.5075,-3.512,-3.5322,-3.5484,-3.5645,-3.5857,-3.5935,-3.6077,-3.6116,-3.6019,-3.6035,-3.6064,-3.6059,-3.6132,-3.6151,-3.6168,-3.6167,-3.6167,0,-3.3717,-3.3814,-3.4078,-3.4175,-3.4291,-3.4441,-3.4553,-3.4732,-3.484,-3.5059,-3.5129,-3.5304,-3.5453,-3.5704,-3.5865,-3.603,-3.6073,-3.6089,-3.6097,-3.6056,-3.6073,-3.6065,-3.6076,-3.6081,-3.608,-3.6079,-3.6078,0,-3.3697,-3.3785,-3.3944,-3.4138,-3.427,-3.4427,-3.4588,-3.4657,-3.4867,-3.4981,-3.5156,-3.5272,-3.55,-3.567,-3.5857,-3.5969,-3.6057,-3.6076,-3.6094,-3.605,-3.5991,-3.6025,-3.6005,-3.6071,-3.6072,-3.6073,-3.6073,-3.6073,-3.3655,-3.375,-3.3955,-3.413,-3.4274,-3.4425,-3.4532,-3.4684,-3.4835,-3.5041,-3.5137,-3.5311,-3.5494,-3.5757,-3.5868,-3.6004,-3.6026,-3.605,-3.6056,-3.6059,-3.6051,-3.5974,-3.6038,-3.6038,-3.6038,-3.6039,-3.6039,0,-3.3642,-3.3785,-3.3946,-3.4175,-3.4313,-3.44,-3.4585,-3.4692,-3.4848,-3.5016,-3.5166,-3.5367,-3.5537,-3.5716,-3.5895,-3.5969,-3.6014,-3.6009,-3.6004,-3.6029,-3.602,-3.5987,-3.5971,-3.5971,-3.5971,-3.5971,-3.5971,-3.5971,-3.3651,-3.382,-3.3933,-3.4174,-3.4314,-3.4496,-3.4596,-3.4735,-3.4871,-3.5095,-3.5241,-3.5363,-3.5535,-3.573,-3.5888,-3.5937,-3.5994,-3.5978,-3.6036,-3.6024,-3.6028,-3.6033,-3.6003,-3.599,-3.599,-3.6035,-3.6035,-3.6035]},{"header":{"parameterUnit":"m.s-1","parameterCategory":1,"la1":30.2991,"la2":30.254,"lo1":-89.0895,"lo2":-89.0444,"dy":0.0017,"dx":0.0017,"nx":28,"ny":28,"refTime":"2025-09-12T03:00:00:Z","depth":0,"parameterNumber":3,"parameterNumberName":"V-component_of_WINDS"},"data":[0,0,0,0,0,0,0,0,0,0,0,0,0,0,0,0,0,0,0,0,0,0,0,0,0,0,0,0,0,0,0,0,0,0,0,0,0,0,0,0,0,0,0,0,0,0,0,0,0,0,0,0,0,0,0,0,0,0,1.2862,1.2862,0,1.2954,1.2955,1.2956,1.3022,1.3023,1.3024,1.3024,1.3118,1.312,1.3122,0,0,0,0,0,0,0,0,0,0,0,0,0,1.2737,1.2739,1.2861,1.2863,1.2864,1.2954,1.2955,1.2956,1.3022,1.3023,1.3024,1.3024,1.3117,1.3119,1.3122,0,0,0,0,0,0,0,0,0,0,0,0,0,1.2806,1.274,1.2861,1.2908,1.2913,1.2954,1.2955,1.2957,1.3022,1.3023,1.3024,1.3025,1.3116,1.3119,1.3122,1.3124,0,0,1.3131,1.3132,0,0,0,0,0,0,0,0,1.2802,1.2811,1.29,1.2904,1.291,1.2978,1.2946,1.3013,1.3022,1.2981,1.3024,1.3025,1.307,1.3077,1.3093,1.3128,1.3132,1.3131,1.3133,1.3134,1.3135,0,0,0,0,0,0,0,1.2798,1.2807,1.2898,1.2901,1.2907,1.2922,1.2933,1.2959,1.302,1.2984,1.2989,1.2999,1.3073,1.309,1.3095,1.3134,1.3131,1.3134,1.3136,1.3137,1.3169,1.3168,0,0,0,0,0,0,1.2786,1.2803,1.2895,1.2901,1.2857,1.2924,1.2936,1.2955,1.302,1.303,1.2999,1.3002,1.3084,1.3092,1.3099,1.3102,1.3134,1.3137,1.3139,1.317,1.3169,1.3168,0,0,0,0,0,0,1.2783,1.2794,1.2891,1.2853,1.2867,1.2925,1.2946,1.2956,1.2973,1.303,1.3041,1.3004,1.3085,1.3095,1.3116,1.3106,1.3139,1.3141,1.3171,1.317,1.3168,1.3109,0,0,0,0,0,0,1.2779,1.2792,1.2795,1.2853,1.2869,1.2908,1.2946,1.2958,1.2978,1.2983,1.3039,1.3049,1.3086,1.3111,1.3119,1.3111,1.3144,1.3172,1.317,1.3169,1.3112,1.3106,1.31,0,0,0,0,0,1.2775,1.2776,1.2795,1.2806,1.2874,1.2908,1.2917,1.2961,1.2977,1.2979,1.3015,1.3047,1.3105,1.3113,1.3122,1.3114,1.3173,1.3171,1.3169,1.3115,1.3107,1.3101,0,0,0,0,0,0,1.2717,1.2785,1.2807,1.2827,1.2861,1.2919,1.2924,1.2952,1.2982,1.2986,1.3039,1.305,1.3065,1.3092,1.3099,1.3116,1.3143,1.3142,1.3099,1.3092,1.3086,1.3079,1.3146,0,0,0,0,0,1.2706,1.2729,1.2787,1.2799,1.2815,1.2866,1.2883,1.2913,1.295,1.2965,1.3003,1.3037,1.3062,1.3079,1.3106,1.3116,1.3126,1.3115,1.3109,1.3104,1.3103,1.3105,1.3099,1.3161,1.3161,1.3161,0,0,1.2686,1.2725,1.2737,1.2788,1.2819,1.2839,1.2878,1.29,1.2914,1.2968,1.299,1.3018,1.3059,1.3073,1.3082,1.3096,1.3087,1.3101,1.3096,1.3098,1.3102,1.3096,1.309,1.316,1.316,1.316,0,0,1.2658,1.2691,1.2703,1.2731,1.2775,1.2808,1.281,1.2862,1.2883,1.2905,1.2944,1.2962,1.3006,1.3032,1.3052,1.3026,1.3054,1.3033,1.3002,1.3003,1.2999,1.2994,1.2982,1.2977,1.3032,1.3032,1.3032,0,1.2626,1.266,1.2705,1.2723,1.2742,1.279,1.28,1.2825,1.2875,1.2887,1.2902,1.2955,1.2987,1.3005,1.2998,1.3013,1.3015,1.3027,1.2996,1.2992,1.2989,1.2977,1.2973,1.3029,1.3029,1.3029,1.303,0,1.2617,1.2639,1.2643,1.2688,1.2708,1.2722,1.2767,1.2781,1.2808,1.2838,1.2856,1.2895,1.2928,1.2935,1.2963,1.2955,1.2963,1.2986,1.3014,1.2979,1.2969,1.2965,1.3024,1.3025,1.3026,1.3027,0,0,1.256,1.2626,1.2626,1.2645,1.2694,1.2711,1.2724,1.2756,1.2765,1.2797,1.2807,1.2841,1.2861,1.2882,1.2912,1.2913,1.2885,1.2936,1.2938,1.2923,1.2874,1.2855,1.285,1.2904,1.2903,1.2903,1.287,0,1.2538,1.2566,1.2604,1.2618,1.2636,1.2678,1.2689,1.2719,1.2746,1.2763,1.2793,1.2814,1.2841,1.2854,1.2857,1.2888,1.2876,1.2891,1.2912,1.2912,1.2899,1.2845,1.2827,1.2794,1.2867,1.2866,1.2866,0,1.2518,1.2545,1.256,1.2601,1.2611,1.262,1.2649,1.2666,1.2698,1.2717,1.2737,1.2769,1.2781,1.2806,1.2822,1.2831,1.2841,1.2857,1.2857,1.286,1.2886,1.2844,1.2785,1.2779,1.2861,1.2861,1.2861,0,1.2471,1.2511,1.2524,1.2539,1.2589,1.2593,1.2614,1.2647,1.2661,1.2686,1.2695,1.2721,1.2734,1.2752,1.2788,1.2803,1.2798,1.2827,1.2812,1.281,1.2809,1.2809,1.2748,1.2818,1.2818,1.2818,1.2818,0,1.2443,1.245,1.2502,1.2511,1.2517,1.2559,1.2564,1.2589,1.2616,1.2628,1.2666,1.2675,1.2722,1.2735,1.2763,1.2769,1.2776,1.279,1.2797,1.2786,1.2783,1.2793,1.2795,1.2817,1.2817,1.2818,1.2818,0,1.2393,1.2429,1.2445,1.2489,1.2499,1.2502,1.2539,1.2546,1.2573,1.2586,1.2591,1.2633,1.265,1.2687,1.2715,1.2733,1.2732,1.2746,1.2721,1.2725,1.2707,1.2707,1.2649,1.2642,1.2718,1.2717,1.2716,0,1.2373,1.2378,1.2421,1.243,1.2449,1.2464,1.2478,1.2517,1.2529,1.2562,1.2564,1.2584,1.2602,1.2627,1.2659,1.2679,1.2692,1.267,1.2696,1.2682,1.2688,1.2687,1.2685,1.2664,1.2663,1.2663,1.2662,0,1.2331,1.2346,1.2365,1.2387,1.2402,1.2422,1.2444,1.2449,1.2492,1.2503,1.252,1.2534,1.256,1.2577,1.2601,1.262,1.2646,1.2653,1.265,1.2639,1.2622,1.2627,1.2703,1.2655,1.2655,1.2656,1.2656,1.2657,1.2294,1.2298,1.2327,1.2344,1.2364,1.2382,1.2389,1.2414,1.2429,1.2453,1.2474,1.2488,1.2514,1.2548,1.2564,1.2574,1.2588,1.2584,1.2583,1.2581,1.2575,1.2621,1.2578,1.2579,1.2579,1.2579,1.2579,0,1.2252,1.2271,1.2286,1.2313,1.2325,1.2348,1.2371,1.2379,1.2391,1.2412,1.2428,1.2444,1.2459,1.249,1.2507,1.2508,1.2521,1.2511,1.2511,1.2514,1.2563,1.2563,1.2501,1.2501,1.2501,1.2501,1.2501,1.2501,1.2232,1.2239,1.2257,1.2272,1.2291,1.2304,1.2315,1.2329,1.2346,1.2362,1.2375,1.2394,1.2418,1.2436,1.2449,1.2458,1.2461,1.2447,1.2459,1.2504,1.2512,1.2519,1.2518,1.2448,1.2448,1.2409,1.2409,1.2408]}]]